Terminal Aerodrome Forecast
Issued by NWS Wilmington, OH

Current Version | Previous Version | Graphics & Text | Print | Product List | Glossary On
Versions: 1 2 3 4 5 6 7 8 9 10 11 12 13 14 15 16 17 18 19 20 21 22 23 24 25 26 27 28 29 30 31 32 33 34 35
852
FTUS41 KILN 300530
TAFCMH
TAF
KCMH 300530Z 3006/0106 03004KT P6SM VCSH SCT013 BKN080 OVC090
      TEMPO 3006/3010 4SM BR OVC009
     FM301200 10010KT 3SM BR VCSH OVC009
     FM301600 12009KT P6SM -SHRA VCTS SCT015CB BKN035
     FM301900 12007KT P6SM -SHRA BKN035
     FM010000 14003KT P6SM BKN040=

USA.gov is the U.S. government's official web portal to all federal, state and local government web resources and services.